Regional Weather Roundup
Issued by NWS San Angelo, TX

Home | Current Version | Previous Version | Text Only | Print | Product List | Glossary On
Versions: 1 2 3 4 5 6 7 8 9 10 11 12 13 14 15 16 17 18 19 20 21 22 23 24 25 26 27 28 29 30 31 32 33 34 35 36 37 38 39 40 41 42 43 44 45 46 47 48 49 50
000
ASUS44 KSJT 112311
RWRSJT
WEST CENTRAL TEXAS REGIONAL WEATHER ROUNDUP
NATIONAL WEATHER SERVICE SAN ANGELO TX
500 PM CST THU FEB 11 2016

NOTE: "FAIR" INDICATES FEW OR NO CLOUDS BELOW 12,000 FEET WITH NO
SIGNIFICANT WEATHER AND/OR OBSTRUCTIONS TO VISIBILITY.

TXZ049-054-064>066-071>073-076>078-098-099-113-114-127-128-139-140-
154-155-168>170-120000
...LOCATIONS ACROSS WEST CENTRAL TEXAS...

CITY           SKY/WX    TMP DP  RH WIND       PRES   REMARKS
SAN ANGELO     SUNNY     82  21  10 W6        30.07R
ABILENE        SUNNY     73  28  18 CALM      30.09R
DYESS AFB      SUNNY     71  32  23 NE3       30.08R
JUNCTION       SUNNY     82  18   9 SW8       30.07R
SWEETWATER     SUNNY     69  27  20 NW6       30.13R
BROWNWOOD      SUNNY     81  25  12 W5        30.06R
COLEMAN        CLEAR     80  25  13 W8        30.07R
SONORA         SUNNY     79  21  11 SW8       30.14R
OZONA          FAIR      79  21  11 NW6       30.12R
BRADY          NOT AVBL
$$

TEXAS PANHANDLE/OKLAHOMA PANHANDLE

CITY           SKY/WX    TMP DP  RH WIND       PRES   REMARKS
AMARILLO       SUNNY     67  21  17 SW6       30.15R
BORGER         NOT AVBL
CANADIAN       SUNNY     67  27  22 SW3       30.11R
DALHART        CLOUDY    70  17  13 SW14      30.14R
DUMAS          CLOUDY    66  22  19 SW8       30.14R HAZE
GUYMON         NOT AVBL
HEREFORD       NOT AVBL
PAMPA          CLOUDY    67  25  21 SW7       30.14R
PERRYTON       SUNNY     66  29  24 SW13      30.10F
$$

SOUTHERN PANHANDLE/SOUTH PLAINS/ROLLING PLAINS

CITY           SKY/WX    TMP DP  RH WIND       PRES   REMARKS
LUBBOCK        MOSUNNY   67  24  19 E7        30.14R
SNYDER           N/A     67  29  24 NE3       30.12S
CHILDRESS      SUNNY     66  29  24 SE3       30.12S
SEMINOLE       CLEAR     68  25  20 NE5       30.16S
$$

PERMIAN BASIN

CITY           SKY/WX    TMP DP  RH WIND       PRES   REMARKS
MIDLAND        SUNNY     71  26  18 NW9       30.13R
ODESSA         SUNNY     72  24  16 N7        30.14R
WINK           SUNNY     76  24  14 N6        30.12R
$$

FAR WEST/SOUTHWEST MOUNTAINS/TRANS PECOS

CITY           SKY/WX    TMP DP  RH WIND       PRES   REMARKS
ALPINE         CLEAR     73  18  12 NE9       30.25R
DRYDEN           N/A     83  16   8 SW9G23    30.07R
EL PASO        SUNNY     71  16  12 S6        30.20S
FORT STOCKTON  SUNNY     74  20  13 NW14      30.15R
GUADALUPE PASS SUNNY     69  11  10 W16       30.25S
MARFA          SUNNY     72  13  10 W18       30.23R
PECOS          CLEAR     74  24  15 NW9       30.12S
$$

DALLAS/FORT WORTH METROPLEX

CITY           SKY/WX    TMP DP  RH WIND       PRES   REMARKS
DFW AIRPORT    MOSUNNY   73  33  23 N5        30.06S
FTW MEACHAM    SUNNY     74  37  26 N6        30.06R
DAL-EXECUTIVE  SUNNY     75  32  20 N5        30.05R
GRAND PRAIRIE  SUNNY     73  34  23 N9        30.07R
ADDISON        SUNNY     73  32  21 CALM      30.06F
MESQUITE       NOT AVBL
LANCASTER      CLEAR     77  27  15 CALM      30.06R
$$

NORTH CENTRAL TEXAS

CITY           SKY/WX    TMP DP  RH WIND       PRES   REMARKS
SHRMAN/DENISON CLEAR     69  34  27 N10       30.10R
GAINESVILLE    SUNNY     70  32  24 E7        30.10R
BRIDGEPORT     CLEAR     72  38  28 E5        30.09R
DENTON         SUNNY     72  35  25 N8        30.07R
WAXAHACHIE     CLEAR     76  37  24 CALM      30.07R
GRANBURY       CLEAR     78  35  21 CALM      30.06S
$$

WESTERN NORTH TEXAS

CITY           SKY/WX    TMP DP  RH WIND       PRES   REMARKS
WICHITA FALLS  SUNNY     68  34  28 NE10      30.10R
VERNON         CLEAR     68  26  20 E7        30.12R
BRECKENRIDGE   CLEAR     74  29  19 CALM      30.08R
COMANCHE       SUNNY     81  31  16 W7        30.06R
$$

CENTRAL AND SOUTH CENTRAL TEXAS

CITY           SKY/WX    TMP DP  RH WIND       PRES   REMARKS
AUSTIN/BERGSTM MOSUNNY   79  33  19 S13G21    30.08R
WACO           SUNNY     80  36  20 S10       30.03R
HILLSBORO      CLEAR     78  35  21 SE5       30.05R
TEMPLE         SUNNY     81  37  20 S12       30.05R
KILLEEN-GRAY   SUNNY     81  29  15 S8        30.04R
FORT HOOD      SUNNY     83  28  13 S10       30.03R
GEORGETOWN     SUNNY     81  34  18 S9        30.05R
LAGO VISTA     FAIR      80  30  16 S8        30.08R
SAN MARCOS     NOT AVBL
NEW BRAUNFELS  SUNNY     80  35  19 SW12      30.08R
RANDOLPH AFB   SUNNY     79  36  21 S6        30.09R
SAN ANTONIO    MOSUNNY   79  34  19 S9        30.09R
STINSON        SUNNY     82  32  16 S9        30.06R
PLEASANTON     NOT AVBL
LA GRANGE      SUNNY     80  40  24 S12       30.08R
GIDDINGS       CLEAR     78  37  23 SW9       30.13R
$$

EAST TEXAS

CITY           SKY/WX    TMP DP  RH WIND       PRES   REMARKS
PARIS          SUNNY     72  37  28 NE3       30.07R
CLARKSVILLE    NOT AVBL
TYLER          SUNNY     76  33  21 W8        30.07R
LONGVIEW       SUNNY     76  34  21 W7        30.06R
PALESTINE      CLEAR     80  35  20 S6        30.07R
NACOGDOCHES    SUNNY     75  39  27 SW9       30.08R
$$

TEXAS HILL COUNTRY AND EDWARDS PLATEAU

CITY           SKY/WX    TMP DP  RH WIND       PRES   REMARKS
LLANO          CLEAR     84  28  13 SW7       30.08R
HORSESHOE BAY  FAIR      82  31  15 S10       30.06S
KERRVILLE      SUNNY     79  24  13 S10       30.10R
FREDERICKSBRG  SUNNY     78  26  14 S9G16     30.09R
ROCKSPRINGS    CLEAR     79  28  15 SW7       30.13R
HONDO          SUNNY     81  29  15 S12       30.10R
UVALDE         CLEAR     80  29  16 S3        30.08S
DEL RIO        SUNNY     84  20   9 SE6       30.05R
$$

SOUTHEAST TEXAS

CITY           SKY/WX    TMP DP  RH WIND       PRES   REMARKS
COLLEGE STN    SUNNY     78  38  23 S12       30.09R
CALDWELL       CLEAR     75  34  22 S12       30.11S
CROCKETT       PTCLDY    77  41  27 SW9       30.10S
BRENHAM        SUNNY     80  38  22 S10       30.10S
HUNTSVILLE     SUNNY     78  40  25 S9        30.08S
CONROE         SUNNY     77  39  25 SW15      30.11R
HOUSTON BUSH   MOSUNNY   77  43  29 SW10G20   30.12R
HOUSTON HOBBY  MOSUNNY   75  44  33 SW16G25   30.13R
PERLAND        SUNNY     75  46  35 SW12      30.15R
WHARTON        CLEAR     73  51  46 S18       30.14S
$$

THE UPPER TEXAS COAST

CITY           SKY/WX    TMP DP  RH WIND       PRES   REMARKS
ORANGE         CLEAR     72  53  52 SW14G20   30.15R
PORT ARTHUR    SUNNY     71  57  61 SW13G24   30.14R
GALVESTON      SUNNY     67  60  78 SW18      30.17R
ANGLETON       SUNNY     72  55  55 SW12      30.16R
BAY CITY       PTCLDY    71  57  60 S14G20    30.15R
$$

TEXAS COASTAL BEND, RIO GRANDE PLAINS DEEP SOUTH TEXAS

CITY           SKY/WX    TMP DP  RH WIND       PRES   REMARKS
VICTORIA       SUNNY     76  47  35 S18G25    30.11R
BEEVILLE       FAIR      83  37  19 S13       30.08S
ROCKPORT       SUNNY     70  57  63 S13G23    30.13R
PORT ARANSAS   CLEAR     65  59  80 S14G23    30.13S
PORT LAVACA    CLEAR     70  57  63 S24       30.13S
CORPUS CHRISTI MOSUNNY   77  53  43 SE23      30.11R
KINGSVILLE NAS MOSUNNY   79  56  45 SE14      30.10R
COTULLA        SUNNY     85  29  13 S7        30.06S
LAREDO         SUNNY     84  33  16 SE10      30.07S
BROWNSVILLE    SUNNY     73  54  51 S21G29    30.15R
PORT ISABEL    SUNNY     74  55  51 S20G25    30.14R
HEBBRONVILLE   NOT AVBL
MCALLEN        SUNNY     81  48  31 SE18G24   30.11R
WESLACO        SUNNY     78  46  32 SE20      30.10R
FALFURRIAS     CLEAR     83  38  20 S14       30.09R
EDINBURG       CLEAR     82  38  21 SE16G23   30.11R
$$



USA.gov is the U.S. government's official web portal to all federal, state and local government web resources and services.